Total_Precipitation_Accumulation
0.00 0.00 0.02 0.07 0.08 0.09 0.07 0.07 0.09 0.14 0.21 0.25 0.15 0.13 0.16 0.17 0.19 0.25 0.61 0.93 0.57 0.47 0.45 0.63 0.47 0.19 0.26 0.17 0.15 0.18 0.14 0.07 0.09 0.09 0.05 0.12 0.11 0.11 0.17 0.16 0.13 0.19 0.33
0.00 0.00 0.06 0.12 0.12 0.11 0.09 0.09 0.10 0.18 0.34 0.39 0.17 0.15 0.15 0.17 0.31 0.47 1.11 1.00 0.88 0.85 0.67 0.49 0.45 0.44 0.22 0.19 0.09 0.02 0.03 0.05 0.04 0.01 0.00 0.04 0.20 0.07 0.06 0.11 0.15 0.10 0.04
0.00 0.00 0.05 0.12 0.09 0.10 0.09 0.07 0.08 0.16 0.35 0.49 0.37 0.26 0.18 0.22 0.34 0.80 1.66 1.51 1.60 1.53 1.16 0.77 0.38 0.44 0.13 0.03 0.03 0.00 0.00 0.00 0.01 0.06 0.00 0.04 0.05 0.07 0.01 0.02 0.02 0.02 0.01
0.00 0.00 0.04 0.10 0.07 0.07 0.05 0.05 0.08 0.15 0.28 0.56 0.64 0.42 0.26 0.15 0.21 0.52 0.95 1.16 1.83 1.74 0.98 0.70 0.40 0.31 0.09 0.03 0.01 0.00 0.00 0.00 0.01 0.04 0.01 0.00 0.00 0.03 0.06 0.04 0.03 0.02 0.03
0.00 0.01 0.08 0.12 0.07 0.08 0.10 0.12 0.11 0.16 0.24 0.54 0.76 0.45 0.41 0.20 0.15 0.13 0.18 0.36 1.03 0.89 0.66 0.30 0.43 0.26 0.09 0.07 0.02 0.00 0.00 0.00 0.00 0.01 0.01 0.00 0.00 0.03 0.06 0.07 0.05 0.04 0.10
0.01 0.04 0.14 0.15 0.10 0.12 0.15 0.19 0.14 0.19 0.27 0.33 0.56 0.45 0.41 0.31 0.22 0.04 0.04 0.13 0.17 0.35 0.44 0.41 0.24 0.18 0.09 0.06 0.02 0.01 0.01 0.00 0.00 0.00 0.00 0.01 0.00 0.02 0.02 0.03 0.03 0.04 0.12
0.02 0.08 0.15 0.20 0.22 0.16 0.16 0.19 0.18 0.24 0.21 0.26 0.41 0.59 0.49 0.42 0.23 0.15 0.07 0.06 0.12 0.36 0.36 0.16 0.09 0.06 0.08 0.04 0.04 0.04 0.03 0.01 0.02 0.02 0.07 0.04 0.12 0.16 0.05 0.03 0.03 0.04 0.07
0.03 0.08 0.16 0.33 0.39 0.31 0.24 0.18 0.19 0.26 0.24 0.25 0.35 0.41 0.43 0.26 0.20 0.13 0.06 0.05 0.09 0.20 0.16 0.13 0.05 0.07 0.10 0.10 0.10 0.07 0.06 0.03 0.01 0.06 0.22 0.08 0.30 0.35 0.13 0.03 0.03 0.03 0.01
0.03 0.11 0.15 0.22 0.30 0.38 0.42 0.46 0.30 0.31 0.17 0.15 0.17 0.16 0.15 0.16 0.07 0.05 0.05 0.06 0.08 0.14 0.08 0.13 0.17 0.07 0.08 0.11 0.11 0.12 0.14 0.07 0.02 0.02 0.04 0.03 0.24 0.50 0.33 0.20 0.03 0.01 0.01
0.04 0.11 0.14 0.14 0.12 0.25 0.36 0.38 0.19 0.17 0.14 0.28 0.26 0.19 0.14 0.10 0.03 0.01 0.01 0.03 0.05 0.07 0.07 0.08 0.08 0.10 0.05 0.10 0.11 0.14 0.13 0.16 0.21 0.22 0.10 0.09 0.43 0.58 0.43 0.26 0.12 0.02 0.04
0.05 0.10 0.12 0.12 0.09 0.11 0.07 0.10 0.11 0.07 0.03 0.03 0.02 0.02 0.00 0.01 0.00 0.00 0.00 0.00 0.01 0.02 0.02 0.02 0.02 0.06 0.08 0.07 0.10 0.06 0.06 0.08 0.16 0.40 0.37 0.47 0.73 0.29 0.18 0.16 0.04 0.02 0.03
0.06 0.09 0.11 0.08 0.05 0.02 0.02 0.02 0.02 0.01 0.01 0.00 0.00 0.00 0.00 0.00 0.00 0.00 0.00 0.00 0.00 0.00 0.00 0.00 0.00 0.01 0.04 0.04 0.06 0.05 0.04 0.02 0.07 0.07 0.11 0.11 0.10 0.05 0.02 0.07 0.02 0.01 0.01
0.04 0.11 0.10 0.05 0.03 0.02 0.02 0.02 0.03 0.01 0.01 0.00 0.00 0.00 0.00 0.00 0.00 0.00 0.00 0.00 0.00 0.00 0.00 0.00 0.00 0.00 0.00 0.01 0.02 0.04 0.02 0.02 0.03 0.06 0.05 0.08 0.17 0.11 0.01 0.00 0.00 0.04 0.10
0.03 0.09 0.11 0.07 0.03 0.04 0.02 0.02 0.04 0.03 0.01 0.00 0.00 0.00 0.00 0.00 0.00 0.00 0.00 0.00 0.00 0.00 0.00 0.00 0.00 0.00 0.00 0.00 0.00 0.01 0.01 0.00 0.01 0.02 0.03 0.04 0.11 0.34 0.39 0.24 0.19 0.16 0.45
0.03 0.08 0.13 0.12 0.10 0.06 0.06 0.02 0.02 0.02 0.00 0.00 0.00 0.00 0.00 0.00 0.00 0.00 0.00 0.00 0.00 0.00 0.00 0.00 0.00 0.00 0.00 0.00 0.00 0.00 0.00 0.01 0.01 0.00 0.01 0.03 0.05 0.06 0.18 0.33 0.54 0.70 0.78
0.02 0.05 0.11 0.17 0.12 0.09 0.07 0.03 0.02 0.01 0.00 0.00 0.00 0.00 0.00 0.00 0.00 0.00 0.00 0.00 0.00 0.00 0.00 0.00 0.00 0.00 0.00 0.00 0.00 0.00 0.00 0.00 0.00 0.00 0.00 0.01 0.03 0.04 0.07 0.22 0.36 0.60 0.90
0.01 0.03 0.06 0.15 0.15 0.11 0.13 0.07 0.03 0.01 0.00 0.00 0.00 0.00 0.00 0.00 0.00 0.00 0.00 0.00 0.00 0.00 0.00 0.00 0.00 0.00 0.00 0.00 0.00 0.00 0.00 0.00 0.00 0.00 0.00 0.00 0.04 0.03 0.07 0.11 0.20 0.24 0.53
0.01 0.01 0.03 0.08 0.17 0.14 0.09 0.08 0.03 0.02 0.01 0.00 0.00 0.00 0.00 0.00 0.00 0.00 0.00 0.00 0.00 0.00 0.00 0.00 0.00 0.00 0.00 0.00 0.00 0.00 0.00 0.00 0.00 0.00 0.00 0.00 0.03 0.01 0.02 0.04 0.06 0.08 0.13
0.01 0.01 0.02 0.05 0.10 0.11 0.09 0.07 0.05 0.01 0.01 0.01 0.00 0.00 0.00 0.00 0.00 0.00 0.00 0.00 0.00 0.00 0.00 0.00 0.00 0.00 0.00 0.00 0.00 0.00 0.00 0.00 0.00 0.00 0.00 0.00 0.00 0.00 0.00 0.04 0.03 0.04 0.06
0.02 0.04 0.03 0.03 0.06 0.07 0.06 0.07 0.06 0.03 0.01 0.00 0.00 0.00 0.00 0.00 0.00 0.00 0.00 0.00 0.00 0.00 0.00 0.00 0.00 0.00 0.00 0.00 0.00 0.00 0.00 0.00 0.00 0.00 0.00 0.00 0.00 0.00 0.00 0.00 0.00 0.01 0.01
0.01 0.04 0.06 0.05 0.06 0.07 0.10 0.06 0.04 0.03 0.01 0.00 0.00 0.00 0.00 0.00 0.00 0.00 0.00 0.00 0.00 0.00 0.00 0.00 0.00 0.00 0.00 0.00 0.00 0.00 0.00 0.00 0.00 0.00 0.00 0.00 0.00 0.00 0.00 0.00 0.00 0.00 0.00
0.01 0.02 0.03 0.04 0.03 0.05 0.06 0.06 0.02 0.01 0.01 0.00 0.00 0.00 0.00 0.00 0.00 0.00 0.00 0.00 0.00 0.00 0.00 0.00 0.00 0.00 0.00 0.00 0.00 0.00 0.00 0.00 0.00 0.00 0.00 0.00 0.00 0.00 0.00 0.00 0.00 0.00 0.00
0.01 0.01 0.02 0.04 0.04 0.02 0.03 0.04 0.04 0.03 0.01 0.01 0.00 0.00 0.00 0.00 0.00 0.00 0.00 0.00 0.00 0.00 0.00 0.00 0.00 0.00 0.00 0.00 0.00 0.00 0.00 0.00 0.00 0.00 0.00 0.00 0.00 0.00 0.00 0.00 0.00 0.00 0.00
0.01 0.01 0.02 0.03 0.05 0.03 0.02 0.04 0.05 0.04 0.05 0.02 0.00 0.00 0.00 0.00 0.00 0.00 0.00 0.00 0.00 0.00 0.00 0.00 0.00 0.00 0.00 0.00 0.00 0.00 0.00 0.00 0.00 0.00 0.00 0.00 0.00 0.00 0.00 0.00 0.00 0.00 0.00
0.00 0.02 0.03 0.04 0.05 0.04 0.03 0.02 0.04 0.05 0.05 0.06 0.03 0.01 0.00 0.00 0.00 0.00 0.00 0.00 0.00 0.00 0.00 0.00 0.00 0.00 0.00 0.00 0.00 0.00 0.00 0.00 0.00 0.00 0.00 0.00 0.00 0.00 0.00 0.00 0.00 0.00 0.00
0.01 0.03 0.03 0.04 0.04 0.04 0.04 0.02 0.02 0.03 0.03 0.02 0.03 0.02 0.00 0.00 0.00 0.00 0.00 0.00 0.00 0.00 0.00 0.00 0.00 0.00 0.00 0.00 0.00 0.00 0.00 0.00 0.00 0.00 0.00 0.00 0.00 0.00 0.00 0.00 0.00 0.00 0.00